Flag for U.S.A. Weather past 2 weeks in Cleveland, Ohio, U.S.A.

Now
71 °F

Passing clouds.


Feels Like: 77 °F
Forecast: 69 / 84 °F
Wind: 6 mph from Southwest

Location: Cleveland-Hopkins International Airport

Current Time: Aug 1, 2015 at 10:25:49 PM

Latest Report: Aug 1, 2015 at 9:51 PM


Visibility: 10 mi

Pressure: 29.92 "Hg

Humidity: 55%

Dew point: 54 °F

Location of ClevelandLocation

Historic Weather in Cleveland — Graph

°F

Cleveland temperature yesterday

Maximum temperature yesterday: 87 °F (at 2:51 PM)
Minimum temperature yesterday: 64 °F (at 3:51 AM)
Average temperature yesterday: 76 °F

Past Weeks' High & Low Weather Summary

 TemperatureHumidityPressure
High92 °F (Jul 29, 3:51 PM)96% (Jul 20, 5:51 AM)30.04 "Hg (Jul 20, 5:51 AM)
Low59 °F (Jul 23, 4:51 AM)26% (Jul 23, 4:51 PM)29.70 "Hg (Jul 21, 4:51 AM)
Average76 °F64%29.93 "Hg
* Reported Jul 17 8:51 PM — Aug 1 8:51 PM, Cleveland, Weather by CustomWeather, © 2015

Note: Actual official high and low records may vary slightly from our data, if they occured in-between our weather recording intervals... More about our weather records

Advertising

Cleveland weather history for previous 24 hours

 ConditionsComfort  
Time TempWeatherWind HumidityBarometerVisibility
8:51 PM
Sat, Aug 1
73 °FSunny.5 mph50%29.90 "Hg10 mi
7:51 PM79 °FSunny.10 mph41%29.90 "Hg10 mi
6:51 PM81 °FPassing clouds.14 mph37%29.90 "Hg10 mi
5:51 PM82 °FPassing clouds.13 mph37%29.90 "Hg10 mi
4:51 PM83 °FScattered clouds.13 mph31%29.91 "Hg10 mi
3:51 PM82 °FPassing clouds.9 mph34%29.92 "Hg10 mi
2:51 PM81 °FPassing clouds.12 mph38%29.93 "Hg10 mi
1:51 PM81 °FScattered clouds.13 mph42%29.94 "Hg10 mi
12:51 PM78 °FScattered clouds.12 mph48%29.95 "Hg10 mi
11:51 AM78 °FPassing clouds.9 mph54%29.96 "Hg10 mi
10:51 AM77 °FPassing clouds.8 mph56%29.94 "Hg10 mi
9:51 AM74 °FSunny.10 mph62%29.95 "Hg10 mi
8:51 AM70 °FSunny.8 mph66%29.94 "Hg10 mi
7:51 AM65 °FSunny.7 mph76%29.93 "Hg10 mi
6:51 AM63 °FClear.7 mph75%29.92 "Hg10 mi
5:51 AM62 °FClear.5 mph78%29.91 "Hg10 mi
4:51 AM64 °FPassing clouds.6 mph75%29.90 "Hg10 mi
3:51 AM64 °FPassing clouds.7 mph78%29.90 "Hg10 mi
2:51 AM64 °FPassing clouds.7 mph81%29.90 "Hg10 mi
1:51 AM65 °FPassing clouds.7 mph81%29.90 "Hg10 mi
12:51 AM67 °FPassing clouds.6 mph79%29.90 "Hg10 mi
11:51 PM
Fri, Jul 31
69 °FPassing clouds.6 mph73%29.90 "Hg10 mi
10:51 PM72 °FClear.8 mph66%29.89 "Hg10 mi
Weather by CustomWeather, © 2015

See weather overviewHow to use our weather pages